Regional Weather Roundup
Issued by NWS

Home | Current Version | Previous Version | Text Only | Print | Product List | Glossary On
Versions: 1 2 3 4 5 6 7 8 9 10 11 12 13 14 15 16 17 18 19 20 21 22 23 24 25 26 27 28 29 30 31 32 33 34 35 36 37 38 39 40 41 42 43 44 45 46 47 48 49 50
000
ASUS46 KLOX 261812
RWRCA

SOUTHERN CALIFORNIA WEATHER ROUNDUP
NATIONAL WEATHER SERVICE OXNARD CALIFORNIA
1000 AM PST MON JAN 26 2015

NOTE: "FAIR" INDICATES FEW OR NO CLOUDS BELOW 12,000 FEET WITH NO
SIGNIFICANT WEATHER AND/OR OBSTRUCTIONS TO VISIBILITY.

  -  STATIONS PRECEEDED BY AN ASTERISK (*) ARE NOT NWS OR FAA
     STATIONS AND ARE NOT SUBJECT TO NWS AND FAA QUALITY CONTROL.

CAZ041-042-087-261900-
LA AND ORANGE COUNTY COASTAL AREAS


CITY           SKY/WX    TMP DP  RH WIND       PRES   REMARKS
L.A. DOWNTOWN  CLOUDY    72  34  24 E5        30.01R
L.A. AIRPORT   PTSUNNY   70  39  32 VRB3      30.02R
LONG BEACH     PTSUNNY   74  43  32 CALM      30.02R

CITY           SKY/WX    TMP DP  RH WIND       PRES   REMARKS
AVALON           N/A     70 N/A N/A MISG        N/A
FULLERTON      PTSUNNY   75  37  25 CALM      30.01R
*GETTY CENTER    N/A    N/A N/A N/A S5G12       N/A
HAWTHORNE      CLOUDY    74  35  24 E5        30.02R
*LOS ALAMITOS  PTSUNNY   73  43  33 VRB2      30.01R
*REDONDO BEACH   N/A     71  39  31 CALM      30.02R
SANTA ANA      PTSUNNY   74  41  30 N5        30.01R
STA MONICA APT PTSUNNY   73  36  25 CALM      30.03R
*STA MON PIER    N/A     70  41  34 NW2       30.01S
TORRANCE       PTSUNNY   75  45  33 VRB7      30.02R
*UCLA            N/A     72  32  23 CALM      30.01S

$$

CAZ547-548-048-261900-
LA COUNTY VALLEYS AND INLAND EMPIRE


CITY           SKY/WX    TMP DP  RH WIND       PRES   REMARKS
BURBANK          N/A    N/A N/A N/A SW6       30.03R
VAN NUYS       CLOUDY    66  45  46 S3        30.03R

CITY           SKY/WX    TMP DP  RH WIND       PRES   REMARKS
CORONA AIRPORT MOCLDY    72  35  25 SE6       30.04R
CHINO          PTSUNNY   71  39  31 VRB6      30.05R
MARCH AFB      CLOUDY    69  33  27 E14       30.06R
*NORTHRIDGE      N/A     66  36  32 SE1         N/A
ONTARIO        CLOUDY    72  32  23 SE6       30.04R
*PASADENA        N/A     73  39  29 E6          N/A
POMONA         MOSUNNY   70  36  28 SE8       30.07R
RIVERSIDE      PTSUNNY   72  34  24 CALM      30.04R
SAN BERNARDINO PTSUNNY   63  37  39 CALM      30.06R
*SAN GABRIEL     N/A     71  33  24 CALM      29.99R
*WHITEMAN AP   CLOUDY    70  32  24 NW7       30.06
*WOODLAND HILL   N/A     72  37  28 CALM        N/A

$$

CAZ054-055-261900-
LA AND SAN BERNARDINO COUNTY MOUNTAINS


CITY           SKY/WX    TMP DP  RH WIND       PRES   REMARKS
*BIG BEAR AIRP CLOUDY    46  32  57 CALM      30.22R
MT WILSON NWS    N/A     55  27  33 SE1         N/A
SANDBERG       CLOUDY    57  28  33 E15       30.15S

$$

CAZ028-029-059-060-099-261900-
ANTELOPE VALLEY AND SURROUNDING AREAS


CITY           SKY/WX    TMP DP  RH WIND       PRES   REMARKS
LANCASTER      CLOUDY    49  38  65 CALM      30.14R
PALMDALE       PTSUNNY   51  35  54 CALM      30.14R

CITY           SKY/WX    TMP DP  RH WIND       PRES   REMARKS
29 PALMS       RAIN      49  44  83 S3        30.25R
BARSTOW/DAGGET CLOUDY    55  31  39 E7        30.14R
BISHOP         MOSUNNY   55  22  27 CALM      30.20S
CHINA LAKE     PTSUNNY   57  35  43 CALM      30.14S
EDWARDS AFB    CLOUDY    47  35  63 SW5       30.12R
MOJAVE         CLOUDY    57  32  38 NE8       30.14S
NEEDLES        CLOUDY    67  32  27 N8        30.16R
VICTORVILLE    CLOUDY    54  30  40 CALM      30.13R

$$

CAZ039-040-261900-
VENTURA AND SANTA BARBARA COUNTY COAST


CITY           SKY/WX    TMP DP  RH WIND       PRES   REMARKS
CAMARILLO      MOSUNNY   70  43  37 N3        30.00S
NWS OXNARD       N/A     69  40  34 CALM      29.99F
OXNARD AIRPORT PTSUNNY   69  48  47 N6        30.00S
*POINT MUGU    PTSUNNY   65  54  67 W5        30.00F
SBA APT/GOLETA CLOUDY    70  43  37 CALM      30.01R
*SANTA BARBARA   N/A     72  37  28 CALM      30.08S
*VENTURA         N/A     69  41  36 E7        30.05S

$$

CAZ044-045-261900-
VENTURA COUNTY VALLEYS


CITY           SKY/WX    TMP DP  RH WIND       PRES   REMARKS
*SIMI VALLEY     N/A     70  36  28 N7        29.98S
*OJAI            N/A     68  46  45 CALM      29.98S
*FILLMORE        N/A     72  44  36 CALM      29.91S

$$

CAZ053-261900-
VENTURA COUNTY MOUNTAINS


CITY           SKY/WX    TMP DP  RH WIND       PRES   REMARKS
*LOCKWOOD VLY    N/A     54  27  35 MISG        N/A
*ROSE VALLEY     N/A     64 -99   0 MISG        N/A

$$

CAZ034-035-036-261900-
CENTRAL COAST AND SANTA YNEZ VALLEY


CITY           SKY/WX    TMP DP  RH WIND       PRES   REMARKS
SAN LUIS OBISP CLOUDY    58  42  55 CALM      30.01R
SANTA MARIA    CLOUDY    64  44  48 CALM      30.01S

CITY           SKY/WX    TMP DP  RH WIND       PRES   REMARKS
*CAL POLY SLO    N/A     61  45  55 CALM        N/A
*LOMPOC        CLOUDY    57  39  51 E7        30.02S
*PISMO BEACH     N/A     62  41  46 NE1       30.02R
*SANTA YNEZ    FAIR      59  46  63 S6        30.03R

$$

CAZ037-038-051-261900-
SAN LUIS OBISPO COUNTY INTERIOR AND CUYAMA VALLEY


CITY           SKY/WX    TMP DP  RH WIND       PRES   REMARKS
*CUYAMA          N/A     53  38  56 CALM      30.01F
PASO ROBLES    CLOUDY    48  38  68 CALM      30.06S

$$

CAZ032-033-061-261900-
SOUTHERN DESERTS


CITY           SKY/WX    TMP DP  RH WIND       PRES   REMARKS
BLYTHE         LGT RAIN  58  42  55 SE8       30.17R
IMPERIAL       CLOUDY    63  46  54 E8        30.12R
PALM SPRINGS   CLOUDY    64  35  34 VRB5      30.15R
THERMAL        CLOUDY    61  38  42 S5        30.13R

$$

ELSEWHERE ACROSS THE WESTERN UNITED STATES AND MEXICO


CITY           SKY/WX    TMP DP  RH WIND       PRES   REMARKS
DENVER, CO     SUNNY     62  25  24 SW12      30.28R
GRAND CANYON,  MOSUNNY   49  23  36 E13G20    30.36R
HONOLULU, HI   PTCLDY    72  61  68 NE9G18    29.95R
KAHULUI, MAUI  MOSUNNY   68  63  83 E10         N/A
LAKE TAHOE, CA PTSUNNY   42  27  55 S3        30.21F
LAS VEGAS, NV  PTSUNNY   63  31  30 CALM      30.15S
MAMMOTH LAKES, FAIR      39  21  48 CALM      30.29F
MEXICO CITY, M PTSUNNY   63  39  42 NE8       30.42F
PHOENIX, AZ    CLOUDY    66  30  26 CALM      30.16R
PORTLAND, OR   FOG       41  41 100 CALM      30.04S VSB 1/4
RENO, NV       PTSUNNY   42  28  57 CALM      30.22F
SALT LAKE CITY SUNNY     45  32  60 CALM      30.38S
SAN DIEGO, CA  CLOUDY    67  36  31 CALM      30.03R
SAN FRANCISCO, PTSUNNY   53  44  71 E3        30.04S
SAN JOSE, CA   PTSUNNY   51  42  71 CALM      30.04S
SEATTLE, WA    MOSUNNY   48  46  93 W3        29.96R
TIJUANA, MEX   PTSUNNY   73  34  23 E18       30.04R

$$

STATION/POSITION TIME  TEMP    WIND        PRES    VSBY  WAVE
                       AIR SEA DIR/SP/G                  HT/PER
                 (UTC) (F)     (DEG/KT/KT) (MB)    (MI)  (FT/S)
POINT ARGUELLO B NOT AVBL
WEST SANTA BARBA 1800   61 60  180/  6/ 12 1015.7R         7/13
POINT CONCEPTION NOT AVBL
EAST SANTA BARBA NOT AVBL
SANTA MONICA BAY 1800   65 62  350/  2/  4 1016.2S         4/15



USA.gov is the U.S. government's official web portal to all federal, state and local government web resources and services.